This demonstration page uses our WeatherBlox Daily Observations layout. Learn more.

Left ArrowRight Arrow

Hourly Observations for March 14, 2016

Temp ( °F °C ) Dew Point ( °F °C ) Humidity (%) Winds ( mph kmh ) Pressure ( in mb ) Visibility ( mi km ) Precip ( " mm )
12:54 am 00:54 Clear 50 10 49 9.4 96 96 S 3 6 29.65 1004 7 11 0.00 0.00
1:54 am 01:54 Clear with Mist and Fog 49 9.4 48 8.9 97 97 S 6 9 29.65 1004 6 10 0.00 0.00
2:54 am 02:54 Clear with Mist and Fog 50 10 48 8.9 93 93 SE 3 6 29.65 1004 6 10 0.00 0.00
3:54 am 03:54 Clear with Mist and Fog 48 8.9 47 8.3 96 96 SSE 6 9 29.64 1004 6 10 0.00 0.00
4:54 am 04:54 Clear 48 8.9 47 8.3 96 96 SW 3 6 29.63 1003 7 11 0.00 0.00
5:54 am 05:54 Clear 48 8.9 46 7.8 93 93 SW 6 9 29.62 1003 8 13 0.00 0.00
6:54 am 06:54 Clear 48 8.9 46 7.8 93 93 WSW 6 9 29.63 1004 8 13 0.00 0.00
7:54 am 07:54 Sunny with Mist and Fog 44 6.7 43 6.1 96 96 SSW 3 6 29.65 1004 4 6 0.00 0.00
8:54 am 08:54 Sunny 48 8.9 45 7.2 89 89 WSW 5 7 29.65 1004 8 13 0.00 0.00
9:54 am 09:54 Sunny 54 12.2 47 8.3 77 77 Calm 29.66 1004 10 16 0.00 0.00
10:54 am 10:54 Sunny 60 15.6 49 9.4 67 67 VRB 3 6 29.65 1004 10 16 0.00 0.00
11:54 am 11:54 Sunny 68 20 49 9.4 51 51 VRB 3 6 29.63 1003 10 16 0.00 0.00
12:54 pm 12:54 Sunny 72 22.2 47 8.3 41 41 W 7 11 29.62 1003 10 16 0.00 0.00
1:54 pm 13:54 Sunny 74 23.3 43 6.1 33 33 SW 10 17 29.60 1002 10 16 0.00 0.00
2:54 pm 14:54 Sunny 75 23.9 40 4.4 28 28 SW 13 20 29.57 1002 10 16 0.00 0.00
3:54 pm 15:54 Sunny 74 23.3 41 5 31 31 WSW 6 9 29.56 1001 10 16 0.00 0.00
4:54 pm 16:54 Mostly Sunny 77 25 39 3.9 26 26 Calm 29.53 1000 10 16 0.00 0.00
5:54 pm 17:54 Sunny 75 23.9 40 4.4 28 28 ESE 6 9 29.52 1000 10 16 0.00 0.00
6:54 pm 18:54 Sunny 71 21.7 40 4.4 32 32 E 9 15 29.51 999 10 16 0.00 0.00
7:54 pm 19:54 Clear 67 19.4 40 4.4 37 37 E 7 11 29.52 1000 10 16 0.00 0.00
8:54 pm 20:54 Clear 68 20 39 3.9 35 35 E 12 19 29.51 999 10 16 0.00 0.00
9:54 pm 21:54 Partly Cloudy 68 20 45 7.2 44 44 SSE 14 22 29.52 1000 10 16 0.00 0.00
10:49 pm 22:49 Mostly Cloudy with Nearby Thunderstorms 66 19 48 9 52 52 W 29 46 29.56 1001 10 16 0.00 0.00
10:54 pm 22:54 Mostly Cloudy with Nearby Thunderstorms 62 16.7 48 8.9 60 60 NW 28 44 29.60 1003 10 16 0.00 0.00
11:01 pm 23:01 Cloudy with Thunderstorms 58 14.4 51 10.6 78 78 WNW 9 15 29.59 1002 9 14 0.00 0.03
11:16 pm 23:16 Cloudy with Strong Thunderstorms 55 12.8 52 11.1 90 90 NNW 29 46 29.56 1001 2 3 0.11 2.79
11:18 pm 23:18 Cloudy with Strong Thunderstorms 56 13.3 52 11.1 87 87 NW 25 41 29.56 1001 6 10 0.13 3.30
11:54 pm 23:54 Cloudy with Nearby Thunderstorms 55 12.8 52 11.1 90 90 NW 16 26 29.62 1003 5 8 0.35 8.89
11:59 pm 23:59 Cloudy with Strong Thunderstorms 55 12.8 52 11.1 90 90 NNW 21 33 29.59 1002 3 4 0.04 1.02

Powered by AerisWeather